This demonstration page uses our WeatherBlox Daily Observations layout. Learn more.

Left ArrowRight Arrow

Hourly Observations for April 21, 2018

Temp ( °F °C ) Dew Point ( °F °C ) Humidity (%) Winds ( mph kmh ) Pressure ( in mb ) Visibility ( mi km ) Precip ( " mm )
12:51 am 00:51 Clear 53 11.7 25 -3.9 34 34 WNW 8 13 30.01 1016 10 16 0.00 0.00
1:51 am 01:51 Clear 53 11.7 27 -2.8 37 37 NNW 5 7 30.00 1016 10 16 0.00 0.00
2:51 am 02:51 Clear 51 10.6 27 -2.8 39 39 W 9 15 30.01 1016 10 16 0.00 0.00
3:51 am 03:51 Clear 48 8.9 26 -3.3 42 42 NW 7 11 30.01 1016 10 16 0.00 0.00
4:51 am 04:51 Clear 49 9.4 27 -2.8 43 43 NNE 6 9 30.00 1016 10 16 0.00 0.00
5:51 am 05:51 Sunny 48 8.9 27 -2.8 44 44 N 3 6 30.03 1017 10 16 0.00 0.00
6:51 am 06:51 Sunny 53 11.7 26 -3.3 35 35 Calm 30.04 1017 10 16 0.00 0.00
7:51 am 07:51 Sunny 59 15 27 -2.8 29 29 NNW 6 9 30.04 1017 10 16 0.00 0.00
8:51 am 08:51 Sunny 62 16.7 27 -2.8 26 26 Calm 30.04 1017 10 16 0.00 0.00
9:51 am 09:51 Sunny 66 18.9 24 -4.4 20 20 VRB 3 6 30.02 1017 10 16 0.00 0.00
10:51 am 10:51 Sunny 69 20.6 23 -5 17 17 VRB 6 9 30.00 1016 10 16 0.00 0.00
11:51 am 11:51 Sunny 72 22.2 22 -5.6 15 15 WSW 6 9 29.97 1015 10 16 0.00 0.00
12:51 pm 12:51 Sunny 74 23.3 23 -5 15 15 S 7 11 29.94 1014 10 16 0.00 0.00
1:51 pm 13:51 Sunny 78 25.6 23 -5 13 13 VRB 3 6 29.91 1013 10 16 0.00 0.00
2:51 pm 14:51 Sunny 81 27.2 23 -5 12 12 W 13 20 29.88 1012 10 16 0.00 0.00
3:51 pm 15:51 Sunny 81 27.2 25 -3.9 13 13 VRB 7 11 29.85 1011 10 16 0.00 0.00
4:51 pm 16:51 Sunny 80 26.7 24 -4.4 13 13 WNW 9 15 29.85 1011 10 16 0.00 0.00
5:51 pm 17:51 Sunny 80 26.7 24 -4.4 13 13 W 10 17 29.85 1011 10 16 0.00 0.00
6:51 pm 18:51 Sunny 77 25 23 -5 13 13 W 7 11 29.85 1011 10 16 0.00 0.00
7:51 pm 19:51 Clear 74 23.3 23 -5 15 15 W 5 7 29.87 1012 10 16 0.00 0.00
8:51 pm 20:51 Clear 67 19.4 22 -5.6 18 18 NE 3 6 29.89 1012 10 16 0.00 0.00
9:51 pm 21:51 Clear 65 18.3 22 -5.6 19 19 E 8 13 29.91 1013 10 16 0.00 0.00
10:51 pm 22:51 Clear 67 19.4 23 -5 19 19 Calm 29.91 1013 10 16 0.00 0.00
11:51 pm 23:51 Clear 61 16.1 21 -6.1 21 21 ENE 6 9 29.92 1013 10 16 0.00 0.00

Powered by AerisWeather